Miscellaneous Local Product
Issued by NWS Hastings, NE

Home | Current Version | Previous Version | Text Only | Print | Product List | Glossary Off
Versions: 1 2 3 4 5 6 7 8 9 10 11 12 13 14 15 16 17 18 19 20 21 22 23 24 25 26 27 28 29 30 31 32 33 34 35 36 37 38 39 40 41 42 43 44 45 46 47 48 49 50

000
AXUS43 KGID 201702
MISGRI

GID CWA HOURLY WEATHER ROUNDUP
NATIONAL WEATHER SERVICE HASTINGS NE
1200 PM CDT WED SEP 20 2017

NOTE: "FAIR" INDICATES FEW OR NO CLOUDS BELOW 12,000 FEET WITH NO
SIGNIFICANT WEATHER AND/OR OBSTRUCTIONS TO VISIBILITY.

...SOUTH CENTRAL NEBRASKA...

CITY           SKY/WX    TMP DP  RH WIND       PRES   REMARKS
GRAND ISLAND   SUNNY     70  45  40 N10       29.91S
HASTINGS       SUNNY     71  44  37 N13       29.91S
KEARNEY        SUNNY     69  45  41 N12       29.92F
ORD            SUNNY     68  41  37 VRB6      29.90S
YORK           SUNNY     72  50  46 N9        29.89R
AURORA         SUNNY     69  46  44 NW9       29.90R
LEXINGTON      SUNNY     69  38  31 NW8       29.93F
HOLDREGE       SUNNY     68  42  38 N6        29.93S
HEBRON         SUNNY     76  50  40 N14       29.87S

...NEBRASKA PANHANDLE...

CITY           SKY/WX    TMP DP  RH WIND       PRES   REMARKS
CHADRON        SUNNY     66  19  16 W22G32    29.88F
ALLIANCE       SUNNY     65  23  20 W18       29.93F
SCOTTSBLUFF    SUNNY     66  26  22 NW16G23   29.93F
SIDNEY         SUNNY     64  29  26 SW10      29.99S

...WESTERN AND NORTH CENTRAL NEBRASKA...

CITY           SKY/WX    TMP DP  RH WIND       PRES   REMARKS
VALENTINE      SUNNY     70  28  21 W18G26    29.90S
AINSWORTH      SUNNY     65  36  34 W9        29.91S
ONEILL         SUNNY     67  46  45 W9G16     29.90S
BROKEN BOW     SUNNY     69  38  32 VRB5      29.92S
IMPERIAL       SUNNY     68  24  19 N6        29.97F
NORTH PLATTE   SUNNY     68  39  34 W8        29.94F
MCCOOK         SUNNY     72  33  24 NE5       29.94F

...EASTERN NEBRASKA...

CITY           SKY/WX    TMP DP  RH WIND       PRES   REMARKS
NORFOLK        SUNNY     69  50  50 W9        29.87F
SO SIOUX CITY  SUNNY     67  54  63 NW13      29.86R
TEKAMAH        SUNNY     72  54  53 NW9       29.84R
COLUMBUS       SUNNY     71  49  45 N7        29.88S
ALBION         SUNNY     69  48  47 NW10      29.90S
OMAHA EPPLEY   SUNNY     75  54  47 NW15      29.82R
OFFUTT AFB     SUNNY     75  55  49 N9        29.81R
MILLARD        SUNNY     75  56  51 NW7G18    29.83R
LINCOLN        SUNNY     77  51  40 N13       29.85R
NEBRASKA CITY  CLOUDY    74  60  61 N10       29.81S
BEATRICE       SUNNY     77  54  44 N13       29.84R
FALLS CITY     MOSUNNY   84  68  58 SW12      29.77R

...NORTHERN KANSAS...

CITY           SKY/WX    TMP DP  RH WIND       PRES   REMARKS
GOODLAND       SUNNY     69  24  18 NE10      29.98F
HILL CITY      SUNNY     73  40  30 NE8       29.93F
NORTON         SUNNY     73  30  20 NW8       29.92F
PHILLIPSBURG   SUNNY     73  41  31 N8        29.91F
SMITH CENTER   SUNNY     73  45  35 N9G17     29.90F
HAYS           SUNNY     76  43  30 N16       29.90F
RUSSELL        SUNNY     76  44  32 N15G21    29.88R
CONCORDIA      SUNNY     75  53  46 N13       29.85R
SALINA         SUNNY     79  54  41 NW13      29.83S
TOPEKA         MOSUNNY   85  71  63 S14G20    29.78S HX  90



USA.gov is the U.S. government's official web portal to all federal, state and local government web resources and services.